Data for 02/18/2017

Time Sea-Level Adjusted Pressure Absolute Pressure Temperature Relative Humidity Dew Point   
(mb) (inHg) (mb) (inHg) (C) (F) (%) (C) (F)
00:05 1005 29.68 834 24.63 3.8 38.8 45 -7.1 19.2
00:10 1005 29.68 834 24.63 3.8 38.8 45 -7.1 19.2
00:15 1005 29.68 834 24.63 3.9 39 44 -7.3 18.9
00:20 1005 29.68 834 24.63 4 39.1 44 -7.3 18.9
00:25 1005 29.68 834 24.63 4 39.1 45 -7 19.3
00:30 1005 29.68 834 24.63 4 39.2 43 -7.4 18.8
00:35 1004 29.65 834 24.63 4.1 39.5 43 -7.4 18.6
00:40 1004 29.65 834 24.63 4.4 39.9 42 -7.6 18.4
00:45 1004 29.65 834 24.63 4.6 40.3 42 -7.2 19
00:50 1004 29.65 834 24.63 4.6 40.3 43 -7 19.4
00:55 1004 29.65 833 24.6 4.7 40.4 43 -6.9 19.5
01:00 1004 29.65 833 24.6 4.6 40.3 43 -6.8 19.8
01:05 1004 29.65 833 24.6 4.6 40.3 44 -6.5 20.3
01:10 1004 29.65 833 24.6 4.5 40.2 44 -6.6 20.2
01:15 1004 29.65 833 24.6 4.6 40.2 44 -6.5 20.3
01:20 1004 29.65 833 24.6 4.5 40.2 45 -6.5 20.3
01:25 1004 29.65 833 24.6 4.6 40.3 45 -6.4 20.6
01:30 1004 29.65 833 24.6 4.6 40.4 44 -6.6 20.2
01:35 1004 29.65 833 24.6 4.7 40.4 45 -6.4 20.5
01:40 1004 29.65 833 24.6 4.6 40.3 45 -6.2 20.8
01:45 1004 29.65 833 24.6 4.5 40.1 48 -5.6 21.8
01:50 1004 29.65 834 24.63 4.2 39.6 49 -5.6 22
01:55 1004 29.65 833 24.6 4.1 39.5 49 -5.5 22.1
02:00 1004 29.65 833 24.6 4.1 39.4 49 -5.6 21.9
02:05 1004 29.65 833 24.6 4.1 39.4 49 -5.8 21.6
02:10 1004 29.65 834 24.63 4.2 39.6 49 -5.6 21.9
02:15 1004 29.65 834 24.63 4.3 39.8 48 -5.6 21.9
02:20 1004 29.65 834 24.63 4.4 39.9 48 -5.6 21.9
02:25 1004 29.65 834 24.63 4.5 40.1 48 -5.5 22
02:30 1004 29.65 833 24.6 4.5 40.1 48 -5.5 22.1
02:35 1004 29.65 834 24.63 4.5 40.1 49 -5.3 22.4
02:40 1004 29.65 834 24.63 4.5 40.1 49 -5.4 22.4
02:45 1004 29.65 834 24.63 4.4 40 49 -5.3 22.5
02:50 1004 29.65 833 24.6 4.3 39.8 50 -5.1 22.8
02:55 1004 29.65 833 24.6 4.2 39.5 51 -5.1 22.8
03:00 1004 29.65 833 24.6 4.1 39.4 51 -5.1 22.8
03:05 1004 29.65 833 24.6 4.1 39.4 51 -5 22.9
03:10 1004 29.65 833 24.6 4.1 39.4 52 -5 23
03:15 1004 29.65 833 24.6 4.1 39.3 52 -4.8 23.3
03:20 1004 29.65 833 24.6 4 39.1 52 -4.9 23.2
03:25 1004 29.65 833 24.6 3.9 39 53 -4.7 23.5
03:30 1004 29.65 833 24.6 3.9 39.1 53 -4.8 23.4
03:35 1004 29.65 833 24.6 4.3 39.8 51 -4.9 23.2
03:40 1004 29.65 833 24.6 4.6 40.2 51 -4.7 23.6
03:45 1004 29.65 833 24.6 4.2 39.5 49 -5.5 22.1
03:50 1004 29.65 833 24.6 3.5 38.4 51 -5.6 21.9
03:55 1004 29.65 833 24.6 3.4 38.2 50 -6 21.1
04:00 1004 29.65 833 24.6 2.9 37.2 52 -5.9 21.4
04:05 1004 29.65 833 24.6 2.5 36.6 53 -6.1 21
04:10 1004 29.65 833 24.6 2.7 36.9 52 -6.2 20.8
04:15 1004 29.65 833 24.6 2.7 36.9 54 -5.7 21.7
04:20 1004 29.65 833 24.6 2.4 36.4 53 -6.1 21
04:25 1004 29.65 833 24.6 2.6 36.8 54 -5.8 21.5
04:30 1004 29.65 833 24.6 2.6 36.8 53 -6 21.1
04:35 1004 29.65 833 24.6 2.6 36.7 54 -5.8 21.5
04:40 1004 29.65 833 24.6 2.5 36.5 54 -5.9 21.4
04:45 1004 29.65 833 24.6 2.4 36.4 55 -5.8 21.6
04:50 1004 29.65 833 24.6 2.3 36.1 55 -5.9 21.3
04:55 1004 29.65 833 24.6 2.2 36 55 -5.9 21.4
05:00 1004 29.65 833 24.6 2.1 35.8 55 -6 21.3
05:05 1004 29.65 833 24.6 2.2 36 56 -5.7 21.7
05:10 1004 29.65 833 24.6 2.4 36.4 51 -6.7 20
05:15 1004 29.65 833 24.6 2.7 36.9 53 -6 21.2
05:20 1004 29.65 833 24.6 2.8 37.1 55 -5.3 22.5
05:25 1004 29.65 833 24.6 2.8 37.1 48 -7.2 19
05:30 1004 29.65 833 24.6 2.9 37.3 51 -6.3 20.6
05:35 1004 29.65 833 24.6 2.9 37.2 56 -5.1 22.8
05:40 1004 29.65 833 24.6 2.9 37.3 57 -4.7 23.5
05:45 1004 29.65 833 24.6 2.8 37.1 60 -4.2 24.5
05:50 1004 29.65 833 24.6 2.5 36.5 62 -4.1 24.6
05:55 1004 29.65 833 24.6 2.4 36.3 62 -4.2 24.5
06:00 1004 29.65 833 24.6 2.4 36.4 57 -5.1 22.8
06:05 1004 29.65 833 24.6 2.7 36.9 58 -4.7 23.5
06:10 1004 29.65 833 24.6 2.8 37 48 -7.2 19.1
06:15 1004 29.65 833 24.6 3 37.4 59 -4.3 24.2
06:20 1004 29.65 834 24.63 2.7 36.8 61 -4.1 24.7
06:25 1004 29.65 834 24.63 2.2 36 62 -4.3 24.2
06:30 1004 29.65 833 24.6 2.5 36.4 58 -4.9 23.2
06:35 1004 29.65 833 24.6 2.8 37.1 49 -6.9 19.6
06:40 1004 29.65 833 24.6 3.1 37.5 57 -4.7 23.5
06:45 1004 29.65 834 24.63 3.3 37.9 56 -4.6 23.7
06:50 1004 29.65 834 24.63 3.1 37.6 59 -4.2 24.4
06:55 1004 29.65 833 24.6 3.2 37.8 57 -4.5 24
07:00 1004 29.65 833 24.6 3.1 37.6 59 -4.1 24.6
07:05 1004 29.65 833 24.6 3 37.3 61 -3.7 25.3
07:10 1004 29.65 833 24.6 2.6 36.6 62 -4.1 24.7
07:15 1004 29.65 833 24.6 2.9 37.3 61 -3.9 25
07:20 1004 29.65 833 24.6 2.9 37.3 61 -3.8 25.1
07:25 1004 29.65 833 24.6 3.2 37.7 61 -3.7 25.3
07:30 1004 29.65 833 24.6 3.3 37.9 60 -3.7 25.3
07:35 1004 29.65 833 24.6 3.6 38.4 59 -3.6 25.5
07:40 1004 29.65 833 24.6 3.5 38.3 61 -3.4 25.9
07:45 1004 29.65 833 24.6 3.3 37.9 62 -3.4 25.9
07:50 1004 29.65 833 24.6 3.1 37.6 62 -3.5 25.7
07:55 1004 29.65 833 24.6 3.3 37.9 60 -3.7 25.4
08:00 1004 29.65 833 24.6 3.4 38.1 60 -3.5 25.6
08:05 1004 29.65 833 24.6 3.3 37.9 62 -3.4 25.9
08:10 1004 29.65 833 24.6 3.2 37.7 61 -3.5 25.7
08:15 1004 29.65 833 24.6 3.3 37.9 61 -3.6 25.6
08:20 1004 29.65 833 24.6 3.4 38.2 60 -3.6 25.6
08:25 1004 29.65 833 24.6 3.4 38.2 62 -3.2 26.3
08:30 1004 29.65 833 24.6 3.2 37.8 63 -3.2 26.2
08:35 1004 29.65 833 24.6 3.4 38 60 -3.7 25.3
08:40 1004 29.65 833 24.6 3.8 38.9 59 -3.5 25.7
08:45 1004 29.65 833 24.6 4 39.2 59 -3.4 25.9
08:50 1004 29.65 833 24.6 4 39.2 59 -3.3 26.1
08:55 1004 29.65 833 24.6 4 39.2 58 -3.4 25.8
09:00 1004 29.65 833 24.6 4.3 39.7 58 -3.3 26
09:05 1004 29.65 833 24.6 4.3 39.8 57 -3.3 26
09:10 1004 29.65 833 24.6 4.5 40.1 57 -3.3 26.1
09:15 1004 29.65 833 24.6 4.5 40.1 57 -3.4 26
09:20 1004 29.65 833 24.6 4.7 40.4 56 -3.3 26
09:25 1004 29.65 833 24.6 4.8 40.6 56 -3.2 26.3
09:30 1004 29.65 833 24.6 4.8 40.6 56 -3.2 26.2
09:35 1004 29.65 833 24.6 4.9 40.8 56 -3.2 26.3
09:40 1004 29.65 833 24.6 5 41.1 55 -3.2 26.2
09:45 1004 29.65 833 24.6 5.1 41.2 55 -3.3 26.1
09:50 1004 29.65 833 24.6 5.3 41.6 54 -3.2 26.2
09:55 1004 29.65 833 24.6 5.9 42.7 51 -3.3 26
10:00 1004 29.65 833 24.6 6.5 43.8 49 -3.4 25.8
10:05 1004 29.65 833 24.6 6.9 44.4 49 -3 26.6
10:10 1004 29.65 833 24.6 6.8 44.3 49 -3.3 26.1
10:15 1004 29.65 833 24.6 7.3 45.1 47 -3.2 26.3
10:20 1004 29.65 833 24.6 7.9 46.2 46 -3.1 26.4
10:25 1004 29.65 833 24.6 8.1 46.5 45 -3 26.6
10:30 1004 29.65 833 24.6 7.7 45.9 47 -2.9 26.8
10:35 1004 29.65 833 24.6 7.7 45.9 46 -3.1 26.4
10:40 1004 29.65 833 24.6 7.6 45.7 47 -3 26.5
10:45 1004 29.65 833 24.6 7.5 45.6 47 -3.1 26.4
10:50 1004 29.65 833 24.6 7.9 46.2 45 -3.3 26.1
10:55 1004 29.65 833 24.6 8.7 47.6 42 -3.6 25.4
11:00 1004 29.65 833 24.6 9.6 49.3 39 -3.5 25.7
11:05 1004 29.65 833 24.6 10.5 50.9 40 -2.5 27.6
11:10 1004 29.65 833 24.6 10.8 51.5 36 -3.7 25.3
11:15 1004 29.65 833 24.6 11.1 52 34 -4 24.8
11:20 1004 29.65 833 24.6 11.3 52.3 33 -4.3 24.3
11:25 1004 29.65 833 24.6 10.5 50.8 36 -4 24.7
11:30 1004 29.65 833 24.6 10.6 51.1 37 -3.4 25.9
11:35 1004 29.65 833 24.6 11.7 53.1 35 -3.2 26.3
11:40 1004 29.65 833 24.6 11.9 53.4 35 -3.2 26.3
11:45 1004 29.65 833 24.6 11.3 52.3 37 -2.8 26.9
11:50 1004 29.65 833 24.6 11.1 51.9 36 -3.2 26.2
11:55 1004 29.65 833 24.6 11.2 52.2 36 -3.2 26.2
12:00 1004 29.65 833 24.6 11.4 52.6 35 -3.4 25.9
12:05 1004 29.65 833 24.6 11.6 52.9 33 -3.9 25
12:10 1004 29.65 833 24.6 12.1 53.8 33 -3.6 25.5
12:15 1004 29.65 833 24.6 12.2 53.9 34 -3 26.7
12:20 1004 29.65 833 24.6 10.6 51.1 38 -3.1 26.3
12:25 1004 29.65 833 24.6 10.8 51.5 37 -3.3 26.1
12:30 1004 29.65 833 24.6 11.3 52.4 34 -3.7 25.3
12:35 1004 29.65 833 24.6 10.3 50.5 40 -2.6 27.4
12:40 1004 29.65 833 24.6 10 50 38 -3.6 25.5
12:45 1004 29.65 833 24.6 9.8 49.6 41 -2.9 26.8
12:50 1004 29.65 833 24.6 9.5 49.1 39 -3.9 25
12:55 1004 29.65 833 24.6 9.7 49.4 38 -4.1 24.6
13:00 1003 29.62 833 24.6 9.2 48.6 42 -3.1 26.4
13:05 1003 29.62 833 24.6 10.4 50.8 38 -3.4 25.9
13:10 1003 29.62 833 24.6 10.8 51.4 37 -3.2 26.2
13:15 1003 29.62 832 24.57 10.3 50.5 40 -2.8 27
13:20 1003 29.62 832 24.57 9.8 49.7 37 -4.1 24.5
13:25 1003 29.62 832 24.57 10.6 51.1 36 -3.9 25
13:30 1003 29.62 832 24.57 11.6 52.9 33 -4 24.8
13:35 1003 29.62 832 24.57 10.5 51 39 -2.7 27.1
13:40 1003 29.62 832 24.57 9.7 49.5 38 -4 24.7
13:45 1003 29.62 832 24.57 9.4 49 39 -3.7 25.4
13:50 1003 29.62 832 24.57 10 50 37 -3.8 25.2
13:55 1003 29.62 832 24.57 9.9 49.8 40 -3.2 26.3
14:00 1003 29.62 832 24.57 9.7 49.4 38 -3.9 24.9
14:05 1003 29.62 832 24.57 10 50 38 -3.6 25.6
14:10 1003 29.62 832 24.57 9.9 49.8 39 -3.3 26.1
14:15 1003 29.62 832 24.57 10.2 50.4 38 -3.3 26.1
14:20 1003 29.62 832 24.57 10 50 41 -2.5 27.4
14:25 1003 29.62 832 24.57 9.8 49.7 41 -2.7 27.2
14:30 1003 29.62 832 24.57 9.1 48.4 42 -3.1 26.4
14:35 1003 29.62 832 24.57 8.7 47.7 42 -3.4 26
14:40 1003 29.62 832 24.57 9.1 48.4 42 -3 26.5
14:45 1003 29.62 832 24.57 9.3 48.8 40 -3.6 25.5
14:50 1003 29.62 832 24.57 9.9 49.8 38 -3.7 25.3
14:55 1003 29.62 832 24.57 10.6 51.1 37 -3.5 25.6
15:00 1003 29.62 832 24.57 10.5 50.8 36 -3.8 25.1
15:05 1003 29.62 832 24.57 10.8 51.4 38 -3.1 26.4
15:10 1003 29.62 832 24.57 10.1 50.2 37 -3.9 25
15:15 1003 29.62 832 24.57 10.1 50.1 37 -4.1 24.7
15:20 1003 29.62 832 24.57 9.9 49.8 37 -4 24.7
15:25 1003 29.62 832 24.57 10.3 50.5 36 -4.1 24.7
15:30 1003 29.62 832 24.57 10.8 51.4 34 -4.5 23.9
15:35 1003 29.62 832 24.57 10.5 50.8 36 -4 24.8
15:40 1003 29.62 832 24.57 10.5 50.9 35 -4.2 24.5
15:45 1002 29.59 832 24.57 10.6 51.1 34 -4.5 23.8
15:50 1002 29.59 832 24.57 11 51.9 34 -4.2 24.4
15:55 1002 29.59 832 24.57 11.1 51.9 34 -4.3 24.2
16:00 1002 29.59 832 24.57 10.7 51.3 34 -4.4 24.2
16:05 1002 29.59 832 24.57 10.9 51.6 34 -4.3 24.2
16:10 1002 29.59 832 24.57 10.8 51.5 36 -3.6 25.5
16:15 1002 29.59 832 24.57 10.5 50.9 37 -3.6 25.5
16:20 1002 29.59 832 24.57 10 50 38 -3.6 25.5
16:25 1002 29.59 831 24.54 10.3 50.5 38 -3.5 25.7
16:30 1002 29.59 831 24.54 10.9 51.6 35 -3.8 25.2
16:35 1002 29.59 832 24.57 11.2 52.1 36 -3.3 26
16:40 1002 29.59 831 24.54 10.8 51.4 38 -2.9 26.7
16:45 1002 29.59 832 24.57 10.7 51.2 37 -3.3 26.1
16:50 1002 29.59 832 24.57 10.9 51.6 37 -3.2 26.2
16:55 1002 29.59 832 24.57 10.8 51.4 38 -2.9 26.8
17:00 1002 29.59 832 24.57 10.8 51.5 39 -2.7 27.2
17:05 1002 29.59 832 24.57 10.7 51.2 38 -3 26.6
17:10 1002 29.59 832 24.57 10.5 50.8 39 -2.9 26.7
17:15 1003 29.62 832 24.57 10.4 50.7 39 -2.9 26.8
17:20 1003 29.62 832 24.57 10.2 50.3 40 -2.9 26.9
17:25 1003 29.62 832 24.57 9.9 49.7 41 -2.7 27.2
17:30 1002 29.59 832 24.57 9.5 49.1 42 -2.8 26.9
17:35 1002 29.59 832 24.57 9.4 48.8 42 -3 26.7
17:40 1002 29.59 832 24.57 9.6 49.2 42 -2.8 27
17:45 1003 29.62 832 24.57 9.4 48.9 43 -2.5 27.5
17:50 1003 29.62 832 24.57 9 48.3 44 -2.5 27.5
17:55 1003 29.62 832 24.57 8.8 47.8 44 -2.8 27
18:00 1003 29.62 832 24.57 8.8 47.9 43 -3 26.6
18:05 1003 29.62 832 24.57 9 48.2 43 -2.9 26.8
18:10 1003 29.62 832 24.57 8.9 48 43 -3.1 26.5
18:15 1003 29.62 832 24.57 9.1 48.3 42 -3.3 26.1
18:20 1003 29.62 832 24.57 8.9 48.1 42 -3.4 25.9
18:25 1003 29.62 832 24.57 8.9 48 40 -4 24.9
18:30 1002 29.59 832 24.57 9.3 48.8 38 -4.1 24.6
18:35 1003 29.62 832 24.57 9.3 48.7 39 -4 24.7
18:40 1003 29.62 832 24.57 9.3 48.7 40 -3.5 25.8
18:45 1003 29.62 832 24.57 8.9 48 42 -3.2 26.2
18:50 1003 29.62 832 24.57 8.6 47.4 42 -3.4 25.8
18:55 1003 29.62 832 24.57 8.5 47.2 44 -3 26.6
19:00 1003 29.62 832 24.57 8.1 46.7 45 -3 26.6
19:05 1003 29.62 832 24.57 8 46.4 44 -3.5 25.8
19:10 1003 29.62 832 24.57 8 46.5 44 -3.5 25.6
19:15 1003 29.62 832 24.57 8.2 46.8 42 -3.9 25
19:20 1003 29.62 832 24.57 8.4 47.2 43 -3.6 25.6
19:25 1002 29.59 832 24.57 8.2 46.7 43 -3.5 25.7
19:30 1002 29.59 832 24.57 8 46.5 44 -3.3 26
19:35 1002 29.59 832 24.57 7.7 45.8 45 -3.3 26
19:40 1002 29.59 832 24.57 7.3 45.1 48 -2.9 26.7
19:45 1002 29.59 832 24.57 7.1 44.7 46 -3.9 25.1
19:50 1002 29.59 832 24.57 8 46.5 41 -4.5 23.9
19:55 1002 29.59 832 24.57 8.6 47.5 41 -3.7 25.3
20:00 1002 29.59 832 24.57 8.3 46.9 43 -3.4 25.8
20:05 1002 29.59 832 24.57 7.8 46.1 44 -3.6 25.6
20:10 1002 29.59 832 24.57 7.9 46.1 45 -3.2 26.3
20:15 1002 29.59 832 24.57 7.7 45.9 45 -3.4 25.8
20:20 1002 29.59 832 24.57 7.8 46 45 -3.4 25.9
20:25 1002 29.59 831 24.54 8.1 46.5 45 -3.3 26.1
20:30 1002 29.59 831 24.54 8 46.3 46 -3 26.7
20:35 1002 29.59 831 24.54 7.4 45.4 49 -2.7 27.2
20:40 1002 29.59 831 24.54 7 44.5 51 -2.5 27.4
20:45 1002 29.59 831 24.54 6.7 44.1 51 -2.6 27.3
20:50 1002 29.59 831 24.54 6.4 43.6 53 -2.4 27.6
20:55 1002 29.59 831 24.54 6.3 43.3 52 -2.8 27
21:00 1002 29.59 831 24.54 6.4 43.6 52 -2.7 27.2
21:05 1002 29.59 831 24.54 6.4 43.4 52 -2.7 27.1
21:10 1002 29.59 831 24.54 6.4 43.5 52 -2.8 27
21:15 1002 29.59 831 24.54 6.4 43.5 52 -2.7 27.2
21:20 1002 29.59 831 24.54 6.5 43.6 51 -3 26.7
21:25 1002 29.59 831 24.54 6.8 44.2 50 -3 26.6
21:30 1002 29.59 831 24.54 6.8 44.3 50 -2.8 26.9
21:35 1002 29.59 831 24.54 7.1 44.7 47 -3.4 25.9
21:40 1002 29.59 831 24.54 7.4 45.3 48 -3 26.7
21:45 1002 29.59 831 24.54 7.2 45 49 -2.9 26.9
21:50 1002 29.59 831 24.54 7 44.6 49 -2.9 26.8
21:55 1002 29.59 831 24.54 6.8 44.2 51 -2.7 27.2
22:00 1002 29.59 831 24.54 6.6 43.8 51 -2.7 27.1
22:05 1002 29.59 831 24.54 6.4 43.5 53 -2.6 27.3
22:10 1002 29.59 831 24.54 6.4 43.6 51 -3 26.6
22:15 1002 29.59 831 24.54 6.7 44 51 -2.8 27
22:20 1002 29.59 831 24.54 6.6 43.9 51 -2.8 27
22:25 1002 29.59 831 24.54 6.7 44.1 50 -3 26.6
22:30 1002 29.59 831 24.54 6.9 44.3 51 -2.7 27.2
22:35 1002 29.59 831 24.54 6.6 43.8 51 -2.8 27
22:40 1002 29.59 831 24.54 6.4 43.6 52 -2.6 27.2
22:45 1002 29.59 831 24.54 6.1 43 53 -2.8 27
22:50 1002 29.59 831 24.54 6.2 43.2 51 -3 26.5
22:55 1002 29.59 831 24.54 6.3 43.3 52 -2.9 26.8
23:00 1002 29.59 831 24.54 6.3 43.3 52 -2.9 26.7
23:05 1002 29.59 831 24.54 6.1 43.1 52 -3 26.7
23:10 1002 29.59 831 24.54 6.1 43 53 -2.8 27
23:15 1002 29.59 831 24.54 6 42.8 53 -2.9 26.8
23:20 1002 29.59 831 24.54 5.9 42.7 53 -3 26.7
23:25 1002 29.59 831 24.54 5.9 42.7 53 -3 26.7
23:30 1002 29.59 831 24.54 6 42.7 51 -3.4 25.9
23:35 1002 29.59 831 24.54 6.2 43.2 51 -3.1 26.3
23:40 1002 29.59 831 24.54 6.1 43 52 -3 26.5
23:45 1002 29.59 831 24.54 5.9 42.7 52 -3.1 26.5
23:50 1002 29.59 831 24.54 5.8 42.4 53 -3.1 26.4
23:55 1002 29.59 831 24.54 5.8 42.4 52 -3.2 26.2
24:00 1002 29.59 831 24.54 5.7 42.2 53 -3.2 26.2